FW1340 Weather Reports


time (UTC)temp
F
wind
direction
speed
knots
gust
knots
rain 1hr
in
rain 24hr
in
rain mn
in
humidity
%
barometer
mb
20260503203020 67 265 0.0 0.0 0.00 0.00 0.00 61 1012.4
20260503201527 65 331 0.0 0.0 0.00 0.00 0.00 63 1012.6
20260503200017 65 229 0.0 0.0 0.00 0.00 0.00 64 1012.5
20260503194518 66 227 0.0 0.0 0.00 0.00 0.00 63 1012.6
20260503193014 66 300 0.0 0.0 0.00 0.00 0.00 61 1012.6
20260503191514 66 278 0.0 0.0 0.00 0.00 0.00 63 1012.7
20260503190017 65 266 0.0 0.0 0.00 0.00 0.00 64 1013.0
20260503184504 64 347 0.0 0.0 0.00 0.00 0.00 65 1013.1
20260503183006 63 264 0.0 0.0 0.00 0.00 0.00 65 1013.1
20260503181504 63 244 0.0 0.0 0.00 0.00 0.00 66 1013.0
20260503180135 63 276 0.0 0.0 0.00 0.00 0.00 67 1013.1
20260503174558 62 254 0.0 0.0 0.00 0.00 0.00 70 1013.1
20260503173100 61 270 0.0 0.0 0.00 0.00 0.00 73 1013.1
20260503171550 60 282 0.0 0.0 0.00 0.00 0.00 73 1013.1
20260503120107 53 265 0.0 0.0 0.00 0.00 0.00 86 1010.3
20260503100104 54 283 0.0 0.0 0.00 0.00 0.00 86 1010.2
20260503081538 55 300 0.0 0.0 0.00 0.00 0.00 85 1011.0
20260503071535 55 271 0.0 0.0 0.00 0.00 0.00 84 1011.0
20260503054525 56 244 0.0 0.0 0.00 0.00 0.00 83 1011.4
20260503053035 56 273 0.0 0.0 0.00 0.00 0.00 83 1011.4
20260503051523 56 287 0.0 0.0 0.00 0.00 0.00 83 1011.5
20260503050022 57 278 0.0 0.0 0.00 0.00 0.00 82 1011.3
20260503044558 57 263 0.0 0.0 0.00 0.00 0.00 81 1011.2
20260503043021 57 271 0.0 0.0 0.00 0.00 0.00 80 1010.9
20260503041522 58 259 0.0 0.0 0.00 0.00 0.00 78 1010.9
20260503040021 59 255 0.0 0.0 0.00 0.00 0.00 77 1010.9
20260503034519 59 273 0.0 0.0 0.00 0.00 0.00 75 1010.7
20260503033019 60 296 0.0 0.0 0.00 0.00 0.00 74 1010.6
20260503031518 61 263 0.0 0.0 0.00 0.00 0.00 72 1010.4
20260503030017 61 277 0.0 0.0 0.00 0.00 0.00 71 1010.4
20260503024517 62 275 0.0 0.0 0.00 0.00 0.00 70 1010.3
20260503023018 63 259 0.0 0.0 0.00 0.00 0.00 69 1010.1
20260503021519 64 287 0.0 0.0 0.00 0.00 0.00 67 1010.0
20260503020028 65 287 0.0 0.0 0.00 0.00 0.00 65 1010.0
20260503014515 66 275 0.0 0.0 0.00 0.00 0.00 64 1010.0
20260503013014 67 254 0.0 0.0 0.00 0.00 0.00 64 1010.0
20260503011513 68 261 0.0 0.0 0.00 0.00 0.00 64 1010.1
20260503010013 69 267 0.0 0.0 0.00 0.00 0.00 60 1010.0
20260503004512 71 275 0.0 0.0 0.00 0.00 0.00 59 1010.0
20260503003023 72 312 0.0 0.0 0.00 0.00 0.00 58 1010.0
20260503001511 72 298 0.0 0.0 0.00 0.00 0.00 55 1009.9
20260503000016 72 284 0.0 0.0 0.00 0.00 0.00 56 1010.0
20260502234509 74 313 0.0 0.0 0.00 0.00 0.00 56 1010.1
20260502233007 73 268 0.0 0.0 0.00 0.00 0.00 56 1010.3
20260502231504 73 254 0.0 0.0 0.00 0.00 0.00 56 1010.4
20260502230003 73 270 0.0 0.0 0.00 0.00 0.00 56 1010.6
20260502224501 73 329 0.0 0.0 0.00 0.00 0.00 57 1010.8
20260502223107 73 305 0.0 0.0 0.00 0.00 0.00 58 1010.9
20260502221602 74 269 0.0 0.0 0.00 0.00 0.00 56 1011.1
20260502214613 74 256 0.0 0.0 0.00 0.00 0.00 56 1011.4
20260502213115 73 319 0.0 0.0 0.00 0.00 0.00 57 1011.7
20260502211554 73 229 0.0 0.0 0.00 0.00 0.00 59 1011.8
20260502210048 72 323 0.0 0.0 0.00 0.00 0.00 60 1012.1
20260502204544 71 267 0.0 0.0 0.00 0.00 0.00 59 1012.3